カタログに戻る

STARLINK-36537

運用中通信VLEO
NORAD 67516·PAYLOAD·🇺🇸 United States

打ち上げ Jan 18, 2026 から Cape Canaveral Space Force Station

Loading…

次のパス (今後24時間)

TLE

最新Source: CelesTrak SupGP

元期: Sep 15, 2026, 03:16 UTC

1 67516C 26012Z   26258.13659722  .00040361  00000+0  14614-2 0  2583
2 67516  43.0035 324.3628 0001728 269.9933 206.6437 15.27568045    11

AllMySatでSTARLINK-36537をリアルタイム追跡

Download on the App Store